Regional Weather Roundup
Issued by NWS

Home | Current Version | Previous Version | Text Only | Print | Product List | Glossary On
Versions: 1 2 3 4 5 6 7 8 9 10 11 12 13 14 15 16 17 18 19 20 21 22 23 24 25 26 27 28 29 30 31 32 33 34 35 36 37 38 39 40 41 42 43 44 45 46 47 48 49 50
000
ASUS44 KBMX 300710
RWRAL

ALABAMA REGIONAL WEATHER ROUNDUP
NATIONAL WEATHER SERVICE BIRMINGHAM AL
200 AM CDT MON MAR 30 2015

NOTE: "FAIR" INDICATES FEW OR NO CLOUDS BELOW 12,000 FEET
WITH NO SIGNIFICANT WEATHER AND/OR OBSTRUCTIONS TO VISIBILITY.

THE REMARK "TC" DENOTES TEMPERATURE IN DEGREES CELSIUS.

ALZ001>011-014-016>018-020-300800-
NORTH ALABAMA

CITY           SKY/WX    TMP DP  RH WIND       PRES   REMARKS
MUSCLE SHOALS  TSTM      54  51  90 N8G23     30.10R FOG
HUNTSVILLE     CLOUDY    61  50  67 SW20G28   30.03F
DECATUR        CLOUDY    59  50  72 S17G31    30.02F
HALEYVILLE       N/A     58  55  89 SW17G23   30.07F
GADSDEN        CLOUDY    55  41  58 S9        30.10F
$$

ALZ012-013-022-023-030>036-040>044-300800-
WEST CENTRAL ALABAMA

CITY           SKY/WX    TMP DP  RH WIND       PRES   REMARKS
TUSCALOOSA     CLOUDY    61  54  77 S13       30.14F
$$

ALZ015-024>027-033>036-040>044-300800-
CENTRAL ALABAMA

CITY           SKY/WX    TMP DP  RH WIND       PRES   REMARKS
BIRMINGHAM     CLOUDY    58  50  75 SW17G25   30.14F
MONTGOMERY     PTCLDY    57  49  74 MISG      30.19F
SHELBY CO ARPT CLOUDY    59  51  75 S10       30.15F
MAXWELL AFB    MOCLDY    56  50  79 S5        30.18F
GREENVILLE     FAIR      53  48  83 S6        30.19F
$$

ALZ019-021-028-029-037-038-045>048-300800-
EAST CENTRAL ALABAMA

CITY           SKY/WX    TMP DP  RH WIND       PRES   REMARKS
ANNISTON       CLOUDY    57  46  66 SW7       30.13F
ALEXANDER CITY CLOUDY    56  44  64 S5        30.18F
AUBURN         MOCLDY    50  37  62 S7        30.23F
$$

ALZ051>064-300800-
SOUTHWEST ALABAMA

CITY           SKY/WX    TMP DP  RH WIND       PRES   REMARKS
MOBILE         PTCLDY    61  60  97 S6        30.20F
BROOKLEY FIELD PTCLDY    65  60  84 S5        30.22S
EVERGREEN      PTCLDY    54  52  93 S5        30.22F
$$

ALZ049-050-065>069-300800-
SOUTHEAST ALABAMA

CITY           SKY/WX    TMP DP  RH WIND       PRES   REMARKS
DOTHAN         CLEAR     51  45  79 S7        30.26F
OZARK          CLEAR     52  45  77 S7        30.23F
TROY           CLEAR     54  47  77 S8        30.22F
EUFAULA        FAIR      52  44  74 S5        30.21F
$$


USA.gov is the U.S. government's official web portal to all federal, state and local government web resources and services.